VJC1324 VVPQ-VVTS

Flight info

Callsign VJC1324
Flight time 0h 39m
Altitude 33000
Route NORTI1A TUNPO W8 RG W16 TRN TRN5C
Aircraft A320/M-SDE2E3FGHIRWXY/LB1

Departure

Time 2026-04-23 15:11
Airport Phú Quốc International Airport (VVPQ)

Arrival

Time 2026-04-23 15:50
Airport Tan Son Nhat International Airport (VVTS)
Time Latitude Longitude Altitude Speed Heading
2026-04-23 14:17 10.16403 103.99918 49 ft 0 kts 185°
2026-04-23 14:50 10.16408 103.99918 49 ft 2 kts 186°
2026-04-23 14:51 10.16423 103.99920 49 ft 2 kts 185°
2026-04-23 14:51 10.16438 103.99921 48 ft 2 kts 186°
2026-04-23 14:51 10.16453 103.99923 48 ft 2 kts 185°
2026-04-23 14:51 10.16468 103.99925 47 ft 2 kts 186°
2026-04-23 14:52 10.16483 103.99927 47 ft 2 kts 214°
2026-04-23 14:52 10.16493 103.99938 46 ft 2 kts 242°
2026-04-23 14:52 10.16497 103.99953 46 ft 2 kts 272°
2026-04-23 14:52 10.16495 103.99966 46 ft 0 kts 278°
2026-04-23 14:53 10.16495 103.99969 46 ft 0 kts 276°
2026-04-23 15:01 10.16496 103.99959 46 ft 3 kts 276°
2026-04-23 15:02 10.16499 103.99927 46 ft 5 kts 276°
2026-04-23 15:02 10.16504 103.99885 47 ft 6 kts 276°
2026-04-23 15:02 10.16531 103.99847 47 ft 8 kts 352°
2026-04-23 15:02 10.16599 103.99852 45 ft 11 kts
2026-04-23 15:03 10.16687 103.99861 43 ft 13 kts
2026-04-23 15:03 10.16754 103.99841 43 ft 10 kts 292°
2026-04-23 15:03 10.16765 103.99760 43 ft 12 kts 276°
2026-04-23 15:03 10.16774 103.99672 43 ft 13 kts 275°
2026-04-23 15:04 10.16784 103.99575 42 ft 14 kts 276°
2026-04-23 15:04 10.16795 103.99466 40 ft 16 kts 276°
2026-04-23 15:04 10.16807 103.99339 37 ft 19 kts 275°
2026-04-23 15:04 10.16820 103.99200 34 ft 20 kts 275°
2026-04-23 15:05 10.16834 103.99067 33 ft 13 kts 275°
2026-04-23 15:05 10.16844 103.98971 32 ft 14 kts 275°
2026-04-23 15:05 10.16854 103.98869 32 ft 15 kts 276°
2026-04-23 15:05 10.16864 103.98762 32 ft 15 kts 276°
2026-04-23 15:06 10.16875 103.98653 33 ft 15 kts 275°
2026-04-23 15:06 10.16885 103.98547 34 ft 14 kts 276°
2026-04-23 15:06 10.16896 103.98444 36 ft 14 kts 276°
2026-04-23 15:06 10.16905 103.98347 38 ft 13 kts 275°
2026-04-23 15:07 10.16915 103.98253 39 ft 14 kts 276°
2026-04-23 15:07 10.16925 103.98145 40 ft 15 kts 275°
2026-04-23 15:07 10.16936 103.98035 40 ft 15 kts 276°
2026-04-23 15:07 10.16947 103.97929 40 ft 10 kts 275°
2026-04-23 15:08 10.16974 103.97867 41 ft 9 kts 325°
2026-04-23 15:08 10.16996 103.97858 41 ft 0 kts 350°
2026-04-23 15:08 10.16999 103.97858 41 ft 1 kts 352°
2026-04-23 15:09 10.17034 103.97858 40 ft 4 kts 13°
2026-04-23 15:09 10.17069 103.97879 39 ft 6 kts 31°
2026-04-23 15:09 10.17101 103.97900 38 ft 6 kts 40°
2026-04-23 15:09 10.17118 103.97935 38 ft 5 kts 82°
2026-04-23 15:10 10.17119 103.97966 37 ft 0 kts 98°
2026-04-23 15:10 10.17116 103.97984 37 ft 9 kts 97°
2026-04-23 15:10 10.17085 103.98292 31 ft 81 kts 96°
2026-04-23 15:10 10.17007 103.99084 33 ft 143 kts 95°
2026-04-23 15:11 10.16904 104.00239 254 ft 171 kts 97°
2026-04-23 15:11 10.16765 104.01376 942 ft 166 kts 97°
2026-04-23 15:11 10.16657 104.02548 1587 ft 169 kts 97°
2026-04-23 15:11 10.16549 104.03739 2113 ft 177 kts 98°
2026-04-23 15:12 10.16423 104.05046 2494 ft 193 kts 98°
2026-04-23 15:12 10.16284 104.06458 2875 ft 210 kts 98°
2026-04-23 15:12 10.16129 104.07999 3200 ft 233 kts 98°
2026-04-23 15:12 10.15959 104.09705 3665 ft 251 kts 97°
2026-04-23 15:13 10.15779 104.11505 4242 ft 263 kts 97°
2026-04-23 15:13 10.15593 104.13361 5037 ft 267 kts 96°
2026-04-23 15:13 10.15409 104.15229 5875 ft 268 kts 96°
2026-04-23 15:13 10.15229 104.17097 6697 ft 270 kts 95°
2026-04-23 15:14 10.15048 104.18999 7458 ft 273 kts 95°
2026-04-23 15:14 10.14866 104.20910 8209 ft 276 kts 96°
2026-04-23 15:14 10.14680 104.22838 8958 ft 279 kts 96°
2026-04-23 15:14 10.14490 104.24794 9672 ft 282 kts 96°
2026-04-23 15:15 10.14295 104.26791 10333 ft 288 kts 96°
2026-04-23 15:15 10.14091 104.28877 10752 ft 306 kts 96°
2026-04-23 15:15 10.13875 104.31091 11128 ft 324 kts 96°
2026-04-23 15:15 10.13634 104.33396 11459 ft 342 kts 97°
2026-04-23 15:16 10.13223 104.35843 11799 ft 359 kts 102°
2026-04-23 15:16 10.12600 104.38314 12391 ft 366 kts 106°
2026-04-23 15:16 10.11854 104.40771 13077 ft 370 kts 107°
2026-04-23 15:16 10.11073 104.43288 13764 ft 375 kts 107°
2026-04-23 15:17 10.10282 104.45834 14411 ft 380 kts 107°
2026-04-23 15:17 10.09489 104.48393 15055 ft 385 kts 107°
2026-04-23 15:17 10.08692 104.50969 15670 ft 390 kts 107°
2026-04-23 15:17 10.07875 104.53615 16290 ft 395 kts 107°
2026-04-23 15:18 10.07056 104.56265 16895 ft 399 kts 107°
2026-04-23 15:18 10.06293 104.58993 17499 ft 404 kts 103°
2026-04-23 15:18 10.05694 104.61774 18108 ft 408 kts 101°
2026-04-23 15:18 10.05160 104.64596 18741 ft 411 kts 101°
2026-04-23 15:19 10.04626 104.67471 19365 ft 414 kts 101°
2026-04-23 15:19 10.04094 104.70329 19946 ft 418 kts 101°
2026-04-23 15:19 10.03547 104.73256 20516 ft 421 kts 101°
2026-04-23 15:19 10.02997 104.76186 21060 ft 425 kts 101°
2026-04-23 15:20 10.02446 104.79107 21570 ft 428 kts 102°
2026-04-23 15:20 10.01883 104.82094 22075 ft 431 kts 102°
2026-04-23 15:20 10.01317 104.85088 22580 ft 434 kts 102°
2026-04-23 15:20 10.00749 104.88081 23062 ft 437 kts 102°
2026-04-23 15:21 10.00173 104.91116 23534 ft 440 kts 102°
2026-04-23 15:21 9.99594 104.94167 24002 ft 443 kts 102°
2026-04-23 15:21 9.99007 104.97259 24452 ft 445 kts 102°
2026-04-23 15:21 9.98424 105.00329 24870 ft 448 kts 101°
2026-04-23 15:22 9.97836 105.03423 25276 ft 451 kts 102°
2026-04-23 15:22 9.97243 105.06548 25685 ft 453 kts 101°
2026-04-23 15:22 9.96684 105.09697 26061 ft 455 kts 97°
2026-04-23 15:22 9.96779 105.12910 26356 ft 460 kts 81°
2026-04-23 15:23 9.97435 105.16099 26759 ft 462 kts 79°
2026-04-23 15:23 9.98107 105.19301 27094 ft 464 kts 79°
2026-04-23 15:23 9.98762 105.22471 27389 ft 466 kts 79°
2026-04-23 15:23 9.99421 105.25715 27671 ft 468 kts 79°
2026-04-23 15:24 10.00067 105.28933 27952 ft 470 kts 79°
2026-04-23 15:24 10.00718 105.32198 28228 ft 471 kts 79°
2026-04-23 15:24 10.01358 105.35418 28554 ft 471 kts 79°
2026-04-23 15:24 10.02001 105.38662 28953 ft 469 kts 79°
2026-04-23 15:25 10.02645 105.41910 29356 ft 468 kts 79°
2026-04-23 15:25 10.03272 105.45077 29715 ft 460 kts 79°
2026-04-23 15:25 10.03905 105.48281 29510 ft 457 kts 79°
2026-04-23 15:25 10.04527 105.51434 29264 ft 456 kts 79°
2026-04-23 15:26 10.05144 105.54573 29013 ft 458 kts 79°
2026-04-23 15:26 10.05766 105.57727 28765 ft 458 kts 79°
2026-04-23 15:26 10.06392 105.60908 28512 ft 459 kts 79°
2026-04-23 15:26 10.07015 105.64069 28263 ft 460 kts 79°
2026-04-23 15:27 10.07648 105.67280 28012 ft 460 kts 79°
2026-04-23 15:27 10.08394 105.70440 27758 ft 461 kts 75°
2026-04-23 15:27 10.09350 105.73547 27507 ft 462 kts 72°
2026-04-23 15:27 10.10388 105.76605 27262 ft 463 kts 72°
2026-04-23 15:28 10.11446 105.79694 27011 ft 463 kts 72°
2026-04-23 15:28 10.12504 105.82790 26672 ft 463 kts 72°
2026-04-23 15:28 10.13540 105.85837 26207 ft 458 kts 72°
2026-04-23 15:28 10.14573 105.88886 25795 ft 456 kts 72°
2026-04-23 15:29 10.15593 105.91906 25313 ft 452 kts 71°
2026-04-23 15:29 10.16608 105.94911 24790 ft 448 kts 71°
2026-04-23 15:29 10.17623 105.97922 24241 ft 444 kts 72°
2026-04-23 15:29 10.18612 106.00861 23700 ft 440 kts 71°
2026-04-23 15:30 10.19597 106.03784 23155 ft 437 kts 72°
2026-04-23 15:30 10.20579 106.06703 22612 ft 434 kts 72°
2026-04-23 15:30 10.21543 106.09573 22084 ft 431 kts 72°
2026-04-23 15:30 10.22506 106.12440 21561 ft 427 kts 72°
2026-04-23 15:31 10.23463 106.15289 21040 ft 424 kts 72°
2026-04-23 15:31 10.24417 106.18129 20509 ft 421 kts 72°
2026-04-23 15:31 10.25350 106.20906 19995 ft 418 kts 71°
2026-04-23 15:31 10.26484 106.23601 19476 ft 415 kts 63°
2026-04-23 15:32 10.28025 106.26081 18958 ft 412 kts 53°
2026-04-23 15:32 10.29885 106.28286 18441 ft 409 kts 47°
2026-04-23 15:32 10.31843 106.30373 17911 ft 407 kts 46°
2026-04-23 15:32 10.33804 106.32432 17384 ft 405 kts 46°
2026-04-23 15:33 10.35742 106.34471 16890 ft 401 kts 46°
2026-04-23 15:33 10.37672 106.36509 16426 ft 397 kts 46°
2026-04-23 15:33 10.39582 106.38534 15951 ft 394 kts 47°
2026-04-23 15:33 10.41373 106.40598 15397 ft 391 kts 56°
2026-04-23 15:34 10.42446 106.43122 14499 ft 396 kts 78°
2026-04-23 15:34 10.42804 106.45879 13819 ft 394 kts 84°
2026-04-23 15:34 10.43044 106.48653 13246 ft 389 kts 84°
2026-04-23 15:34 10.43307 106.51375 12686 ft 384 kts 83°
2026-04-23 15:35 10.43605 106.54038 12251 ft 376 kts 83°
2026-04-23 15:35 10.43921 106.56612 11825 ft 368 kts 82°
2026-04-23 15:35 10.44253 106.59179 11386 ft 359 kts 82°
2026-04-23 15:35 10.44577 106.61616 10824 ft 340 kts 82°
2026-04-23 15:36 10.44889 106.63926 10265 ft 322 kts 82°
2026-04-23 15:36 10.45186 106.66114 9618 ft 308 kts 82°
2026-04-23 15:36 10.45469 106.68203 9204 ft 289 kts 82°
2026-04-23 15:36 10.45732 106.70145 8847 ft 272 kts 82°
2026-04-23 15:37 10.45985 106.71999 8514 ft 257 kts 81°
2026-04-23 15:37 10.46370 106.73708 8241 ft 243 kts 63°
2026-04-23 15:37 10.47495 106.74966 7601 ft 246 kts 31°
2026-04-23 15:37 10.49064 106.75633 6962 ft 248 kts 20°
2026-04-23 15:38 10.50698 106.76214 6329 ft 249 kts 20°
2026-04-23 15:38 10.52319 106.76811 5999 ft 245 kts 20°
2026-04-23 15:38 10.53937 106.77422 5887 ft 249 kts 20°
2026-04-23 15:38 10.55558 106.78044 5767 ft 249 kts 21°
2026-04-23 15:39 10.57201 106.78681 5645 ft 249 kts 21°
2026-04-23 15:39 10.58814 106.79313 5527 ft 249 kts 21°
2026-04-23 15:39 10.60424 106.79945 5407 ft 249 kts 21°
2026-04-23 15:39 10.62049 106.80586 5289 ft 249 kts 21°
2026-04-23 15:40 10.63676 106.81228 5174 ft 249 kts 22°
2026-04-23 15:40 10.65301 106.81869 5011 ft 245 kts 22°
2026-04-23 15:40 10.66861 106.82485 4877 ft 235 kts 22°
2026-04-23 15:40 10.68362 106.83078 4747 ft 226 kts 22°
2026-04-23 15:41 10.69791 106.83643 4620 ft 217 kts 22°
2026-04-23 15:41 10.71199 106.84201 4488 ft 214 kts 22°
2026-04-23 15:41 10.72556 106.84738 4433 ft 198 kts 23°
2026-04-23 15:41 10.73799 106.85230 4293 ft 187 kts 23°
2026-04-23 15:42 10.75010 106.85710 4169 ft 187 kts 23°
2026-04-23 15:42 10.76225 106.86192 4050 ft 187 kts 23°
2026-04-23 15:42 10.77449 106.86678 4003 ft 187 kts 23°
2026-04-23 15:42 10.78666 106.87161 3992 ft 188 kts 23°
2026-04-23 15:43 10.79890 106.87645 3988 ft 188 kts 23°
2026-04-23 15:43 10.81109 106.88127 3987 ft 188 kts 23°
2026-04-23 15:43 10.82338 106.88614 3981 ft 188 kts 23°
2026-04-23 15:43 10.83556 106.89096 3983 ft 187 kts 22°
2026-04-23 15:44 10.84854 106.89338 3727 ft 191 kts 358°
2026-04-23 15:44 10.86133 106.88981 3411 ft 192 kts 332°
2026-04-23 15:44 10.87150 106.88104 3073 ft 192 kts 304°
2026-04-23 15:44 10.87700 106.86908 2770 ft 187 kts 279°
2026-04-23 15:45 10.87917 106.85632 2542 ft 180 kts 274°
2026-04-23 15:45 10.88082 106.84377 2295 ft 177 kts 273°
2026-04-23 15:45 10.88229 106.83141 2045 ft 172 kts 268°
2026-04-23 15:45 10.88146 106.81942 1999 ft 170 kts 255°
2026-04-23 15:46 10.87874 106.80808 1967 ft 160 kts 248°
2026-04-23 15:46 10.87549 106.79786 1954 ft 143 kts 245°
2026-04-23 15:46 10.87210 106.78838 1977 ft 141 kts 244°
2026-04-23 15:46 10.86862 106.77900 1979 ft 141 kts 243°
2026-04-23 15:47 10.86511 106.76970 1981 ft 141 kts 243°
2026-04-23 15:47 10.86155 106.76028 1916 ft 142 kts 243°
2026-04-23 15:47 10.85807 106.75102 1751 ft 141 kts 243°
2026-04-23 15:47 10.85454 106.74169 1567 ft 140 kts 243°
2026-04-23 15:48 10.85111 106.73252 1394 ft 139 kts 244°
2026-04-23 15:48 10.84756 106.72334 1233 ft 138 kts 243°
2026-04-23 15:48 10.84407 106.71433 1051 ft 137 kts 245°
2026-04-23 15:48 10.84080 106.70521 854 ft 137 kts 245°
2026-04-23 15:49 10.83738 106.69611 697 ft 136 kts 245°
2026-04-23 15:49 10.83390 106.68705 512 ft 137 kts 245°
2026-04-23 15:49 10.83050 106.67810 348 ft 136 kts 246°
2026-04-23 15:49 10.82710 106.66908 186 ft 137 kts 246°
2026-04-23 15:50 10.82370 106.66007 36 ft 132 kts 246°
2026-04-23 15:50 10.82082 106.65253 34 ft 91 kts 249°
2026-04-23 15:50 10.81918 106.64812 34 ft 42 kts 250°
2026-04-23 15:50 10.81853 106.64646 32 ft 20 kts 249°
2026-04-23 15:51 10.81797 106.64499 29 ft 22 kts 248°
2026-04-23 15:51 10.81700 106.64374 27 ft 21 kts 218°
2026-04-23 15:51 10.81583 106.64305 26 ft 12 kts 189°
2026-04-23 15:51 10.81537 106.64306 27 ft 4 kts 175°
2026-04-23 15:52 10.81500 106.64313 27 ft 5 kts 163°
2026-04-23 15:52 10.81462 106.64322 28 ft 5 kts 167°
2026-04-23 15:52 10.81425 106.64335 28 ft 7 kts 159°
2026-04-23 15:52 10.81372 106.64356 29 ft 8 kts 159°
2026-04-23 15:53 10.81313 106.64378 29 ft 9 kts 159°
2026-04-23 15:53 10.81253 106.64404 28 ft 6 kts 144°
2026-04-23 15:53 10.81253 106.64451 27 ft 9 kts 69°
2026-04-23 15:53 10.81278 106.64518 26 ft 10 kts 69°
2026-04-23 15:54 10.81307 106.64594 25 ft 12 kts 68°
2026-04-23 15:54 10.81339 106.64683 24 ft 13 kts 70°
2026-04-23 15:54 10.81373 106.64777 24 ft 14 kts 69°
2026-04-23 15:54 10.81405 106.64857 24 ft 6 kts 68°
2026-04-23 15:55 10.81418 106.64892 25 ft 5 kts 68°
2026-04-23 15:55 10.81432 106.64927 25 ft 5 kts 68°
2026-04-23 15:55 10.81450 106.64973 25 ft 8 kts 69°
2026-04-23 15:55 10.81476 106.65044 26 ft 12 kts 70°
2026-04-23 15:56 10.81507 106.65127 26 ft 12 kts 69°
2026-04-23 15:56 10.81540 106.65212 27 ft 13 kts 69°
2026-04-23 15:56 10.81572 106.65301 28 ft 13 kts 70°
2026-04-23 15:56 10.81606 106.65389 29 ft 13 kts 68°
2026-04-23 15:57 10.81638 106.65475 30 ft 11 kts 69°
2026-04-23 15:57 10.81665 106.65547 31 ft 11 kts 70°
2026-04-23 15:57 10.81693 106.65620 32 ft 11 kts 68°
2026-04-23 15:57 10.81724 106.65704 31 ft 13 kts 70°
2026-04-23 15:58 10.81757 106.65795 32 ft 13 kts 70°
2026-04-23 15:58 10.81786 106.65874 33 ft 10 kts 69°
2026-04-23 15:58 10.81810 106.65939 33 ft 9 kts 69°
2026-04-23 15:58 10.81836 106.66007 32 ft 9 kts 69°
2026-04-23 15:59 10.81827 106.66061 31 ft 8 kts 153°
2026-04-23 15:59 10.81760 106.66061 30 ft 10 kts 186°
2026-04-23 15:59 10.81684 106.66054 29 ft 11 kts 185°
2026-04-23 15:59 10.81605 106.66047 26 ft 9 kts 185°
2026-04-23 16:00 10.81533 106.66040 25 ft 10 kts 186°
2026-04-23 16:00 10.81476 106.66035 26 ft 1 kts 163°
2026-04-23 16:00 10.81471 106.66052 27 ft 3 kts 97°
2026-04-23 16:00 10.81469 106.66070 28 ft 1 kts 96°
2026-04-23 16:01 10.81469 106.66076 28 ft 2 kts 96°
2026-04-23 16:01 10.81467 106.66099 29 ft 3 kts 97°
2026-04-23 16:01 10.81465 106.66118 30 ft 1 kts 96°
2026-04-23 16:01 10.81464 106.66125 31 ft 0 kts 96°
2026-04-23 16:02 10.81464 106.66130 31 ft 0 kts 96°
2026-04-23 16:02 10.81463 106.66135 31 ft 0 kts 97°
2026-04-23 16:02 10.81464 106.66135 31 ft 0 kts 98°